[keps] orb08154.2l.amsat

Ray Hoad r.hoad at att.net
Mon Jun 2 17:59:54 PDT 2008


SB KEPS @ AMSAT  $ORB08154.N
2Line Orbital Elements 08154.AMSAT

HR AMSAT ORBITAL ELEMENTS FOR AMATEUR SATELLITES IN NASA FORMAT
FROM WA5QGD FORT WORTH,TX June 2, 2008
Send Subscribe/unsubscribe to KEPS at 
http://www.amsat.org/mailman/listinfo/keps
BID: ORB08154.N

DECODE 2-LINE ELSETS WITH THE FOLLOWING KEY:
1 AAAAAU 00  0  0 BBBBB.BBBBBBBB  .CCCCCCCC  00000-0  00000-0 0  DDDZ
2 AAAAA EEE.EEEE FFF.FFFF GGGGGGG HHH.HHHH III.IIII JJ.JJJJJJJJKKKKKZ
KEY: A-CATALOGNUM B-EPOCHTIME C-DECAY D-ELSETNUM E-INCLINATION F-RAAN
G-ECCENTRICITY H-ARGPERIGEE I-MNANOM J-MNMOTION K-ORBITNUM Z-CHECKSUM

TO ALL RADIO AMATEURS BT

AO-07
1 07530U 74089B   08154.76879452 -.00000027  00000-0  10000-3 0  1917
2 07530 101.4677 186.7488 0011452 290.0267 069.9565 12.53573667535170
PO-63
1 29712U 07001D   08154.21677008  .00000583  00000-0  83519-4 0  4977
2 29712 097.8750 212.6835 0015564 071.1359 289.1537 14.80169052 75253
VO-52
1 28650U 05017B   08153.93920655 -.00000173  00000-0 -15349-4 0 09461
2 28650 097.7904 220.9676 0027129 187.7804 172.3015 14.81466805166349
RS-15
1 23439U 94085A   08153.93617959 -.00000039  00000-0  10000-3 0 01565
2 23439 064.8150 159.7085 0147575 125.7464 235.7287 11.27552033553242
FO-29
1 24278U 96046B   08153.81291001 -.00000037  00000-0  15121-5 0 08026
2 24278 098.5865 072.1115 0349728 255.3283 100.8851 13.52937389582316
SO-33
1 25509U 98061B   08153.74188272  .00000076  00000-0  62612-6 0 02114
2 25509 031.4329 043.6798 0355145 252.1882 103.9753 14.28216096501400
AO-40
1 26609U 00072B   08153.68288658 -.00000016  00000-0  10000-3 0   678
2 26609 007.5818 079.8268 7914964 087.0538 350.4585 01.25583385 34844
UO-11
1 14781U 84021B   08153.56436541  .00000017  00000-0  95592-5 0  6841
2 14781 098.1547 187.3635 0010099 120.8692 239.3509 14.79645145301547
AO-10
1 14129U 83058B   08153.20911330 -.00000087  00000-0  10000-3 0 05139
2 14129 025.9536 212.5710 5989711 128.4067 302.2932 02.05871177187774
LIBERT
1 31129U 07012N   08154.14938986  .00000339  00000-0  89029-4 0   103
2 31129 098.0390 218.2662 0103346 021.9735 338.5800 14.52039984 59734
CO-56
1 28941U 06005C   08153.96820363  .00030241  26048-5  22367-3 0 01056
2 28941 098.1066 262.5922 0168577 096.7064 265.3409 15.56617045127672
LO-19
1 20442U 90005G   08153.95610127 -.00000040  00000-0  11638-6 0 02638
2 20442 098.1997 143.3809 0011219 216.5332 143.5088 14.32033052958892
AO-27
1 22825U 93061C   08153.93908924 -.00000080  00000-0 -14954-4 0 09839
2 22825 098.3820 114.5331 0007748 310.9959 049.0558 14.29239841765597
SO-50
1 27607U 02058C   08153.91755820 -.00000011  00000-0  20455-4 0 06182
2 27607 064.5576 100.0119 0085308 282.2162 076.9387 14.71359512292726
AO-16
1 20439U 90005D   08153.90625844  .00000015  00000-0  20858-4 0 03365
2 20439 098.2284 134.7501 0010033 219.9963 140.0488 14.31794921958738
CP3
1 31128U 07012M   08153.89860635 -.00000047  00000-0  00000-0 0 03465
2 31128 098.0404 217.9827 0103516 022.8313 337.7384 14.51948803059713
CP4
1 31122U 07012F   08153.75925882  .00000551  00000-0  13192-3 0 03547
2 31122 098.0429 219.9241 0085628 018.0928 342.3271 14.55129523059832
NO-44
1 26931U 01043C   08153.75364587  .00000181  00000-0  10311-3 0 08944
2 26931 067.0538 324.4161 0006506 274.6173 085.4162 14.29525490348204
CO-55
1 27844U 03031E   08153.65968464  .00000030  00000-0  34306-4 0  3185
2 27844 098.7151 162.1428 0010231 155.4448 204.7207 14.20581509255234
IO-26
1 22826U 93061D   08153.64580736  .00000015  00000-0  22392-4 0 06899
2 22826 098.3754 115.1674 0008323 308.3620 051.6811 14.29488833765641
CO-57
1 27848U 03031J   08153.58523954  .00000014  00000-0  26888-4 0 02707
2 27848 098.7150 161.1676 0009756 159.4878 200.6680 14.20390128255192
GO-32
1 25397U 98043D   08153.57268837 -.00000011  00000-0  13223-4 0 06134
2 25397 098.3648 189.5057 0000355 326.0947 034.0221 14.23143838513991
AO-51
1 28375U 04025K   08153.56006159  .00000019  00000-0  18569-4 0 01158
2 28375 098.0716 179.0088 0083014 199.9361 159.8581 14.40609285206155
MO-46
1 26548U 00057D   08153.52517618  .00000032  00000-0  22016-4 0 01148
2 26548 064.5563 178.7370 0028177 326.5931 033.3412 14.83264719415497
PO-28
1 22829U 93061G   08153.50000547 -.00000069  00000-0 -10341-4 0  9585
2 22829 098.3629 116.1344 0008809 277.8579 082.1605 14.30189844765880
NOAA-18
1 28654U 05018A   08154.65958278  .00000125  00000-0  93767-4 0  4514
2 28654 098.8673 095.7687 0014452 359.3440 000.7685 14.11168171156429
NOAA-14
1 23455U 94089A   08154.61468123  .00000160  00000-0  10828-3 0  1663
2 23455 098.9470 226.8479 0009488 180.3738 179.7454 14.13743125692291
OKEAN-0
1 25860U 99039A   08154.58468469  .00000052  00000-0  15193-4 0  3825
2 25860 097.7489 145.7791 0001244 037.1094 323.0194 14.73523557477244
NOAA-10
1 16969U 86073A   08154.50389317  .00000106  00000-0  61271-4 0  1450
2 16969 098.7226 176.5033 0011550 221.5160 138.5151 14.27361249129343
NOAA-16
1 26536U 00055A   08154.40236887 -.00000124  00000-0 -41663-4 0  9586
2 26536 099.1551 143.2547 0009510 267.4061 092.6037 14.12481855396689
NOAA-15
1 25338U 98030A   08154.39854478 -.00000045  00000-0 -79222-6 0  4890
2 25338 098.5527 146.6333 0011841 085.2721 274.9827 14.24704190522690
NOAA-17
1 27453U 02032A   08154.36685380  .00000115  00000-0  68490-4 0  9498
2 27453 098.5351 219.4215 0012469 147.4526 212.7453 14.23977851308696
NOAA-11
1 19531U 88089A   08154.31701661 -.00000105  00000-0 -31760-4 0  1851
2 19531 098.7970 243.8478 0012450 109.8381 250.4164 14.14870819 15808
NOAA-12
1 21263U 91032A   08154.25170973  .00000203  00000-0  10450-3 0  6985
2 21263 098.7657 156.2053 0012717 164.3841 195.7756 14.25535136886260
FENGYUN1
1 25730U 99025A   08153.98881569 -.00000062  00000-0 -11827-4 0 04261
2 25730 098.7229 130.2910 0018874 212.3563 147.6451 14.07685807466822
RESURS
1 25394U 98043A   08153.93344144  .00000012  00000-0  23294-4 0 09410
2 25394 098.3893 198.5873 0000502 248.0949 112.0177 14.24160824514279
MET-3/5
1 21655U 91056A   08153.92337045  .00000051  00000-0  10000-3 0 04906
2 21655 082.5522 115.1666 0014990 053.2207 307.0289 13.17015761807571
SICH-1
1 23657U 95046A   08153.74940834  .00000258  00000-0  29740-4 0 04012
2 23657 082.5266 110.4571 0023994 166.3319 193.8538 14.81582532687938
OKEAN-4
1 23317U 94066A   08153.73664956  .00000248  00000-0  27680-4 0 06037
2 23317 082.5386 329.4870 0022269 173.5772 186.5733 14.82614681735993
MET-2/21
1 22782U 93055A   08153.44479805  .00000019  00000-0  41867-5 0 01590
2 22782 082.5453 124.0665 0022059 338.6441 021.3793 13.83627914744959
CUTE1-7
1 32785U 08021C   08154.79960534  .00000134  00000-0  24077-4 0   664
2 32785 097.9934 214.7536 0014695 178.3289 181.7972 14.81362228  5275
ISS
1 25544U 98067A   08154.65231235  .00011932  00000-0  76921-4 0  5907
2 25544 051.6367 091.3257 0005321 293.9459 132.2621 15.76649255546236
FALCON
1 30776U 07006E   08154.56171616  .00000373  00000-0  30218-4 0  3240
2 30776 035.4343 242.1951 0001625 282.5966 077.4568 15.02997778 67941
HUBBLE
1 20580U 90037B   08153.97789077  .00000293  00000-0  98060-5 0 01584
2 20580 028.4681 062.4278 0003957 220.2846 139.7449 15.00382696792693
AAUSAT2
1 32788U 08021F   08153.85032426  .00000036  00000-0  11520-4 0 00663
2 32788 097.9919 213.7968 0015589 181.1396 178.9776 14.81520775005131
CANX-2
1 32797U 08021L   08153.78650141  .00000065  00000-0  15209-4 0 00362
2 32797 097.9926 213.7396 0015393 181.9169 178.1986 14.81357088003805
COMPASS
1 32787U 08021E   08153.78528867  .00000089  00000-0  18226-4 0   559
2 32787 097.9891 213.7220 0015726 183.4643 176.6465 14.81412866  5123
CAPE1
1 31130U 07012P   08153.75573968  .00000075  00000-0  28223-4 0  3206
2 31130 098.0405 217.8508 0103304 023.4013 337.1828 14.51966014 59486
OO-38
1 26063U 00004C   08153.75194334 -.00000029  00000-0  10550-4 0 02264
2 26063 100.1918 225.5674 0036487 252.6129 107.1055 14.35836472437359
MAST
1 31126U 07012K   08153.75153427  .00000000  00000-0  10709-4 0 03438
2 31126 098.0391 218.8006 0095514 020.3980 340.0999 14.53425559059771
PO-34
1 25520U 98064B   08153.73840574  .00000429  00000-0  11359-4 0 00164
2 25520 028.4597 282.2075 0005553 120.1553 239.9591 15.17196972530815
UWE-1
1 28892U 05043C   08153.72854280  .00000187  00000-0  48715-4 0 00631
2 28892 098.0994 047.7388 0018548 097.0196 263.3146 14.59632705138341
SEEDS
1 32791U 08021J   08153.72096866  .00000034  00000-0  11230-4 0 00612
2 32791 097.9937 213.6650 0015925 181.5396 178.5768 14.81272889005081
DO-64
1 32789U 08021G   08153.71835049  .00000282  00000-0  42911-4 0 00820
2 32789 097.9919 213.6674 0015661 182.7300 177.3826 14.81393639005112
UARS
1 21701U 91063B   08153.69823114  .00005094  00000-0  78357-4 0 03997
2 21701 056.9723 228.9402 0087462 148.1847 212.4537 15.51971266920099
NCUBE2
1 28897U 05043H   08153.66322388  .00000133  00000-0  37379-4 0  5650
2 28897 098.0984 047.9582 0018298 097.9207 262.4055 14.59843171130507
CO-58
1 28895U 05043F   08153.28559067  .00000127  00000-0  36169-4 0 00364
2 28895 098.1005 047.6581 0019055 099.0996 261.2359 14.59672533138162
FCAL
1 29667U 06055J   08146.34060426  .11864717  12752-4  73624-4 0  9790
2 29667 051.6107 065.3702 0009039 260.8350 099.5042 16.53464210 82911
/EX






More information about the Keps mailing list